Terug naar catalogus

STARLINK-34556

ActiefCommunicatieVLEO
NORAD 64733·PAYLOAD·🇺🇸 United States

Gelanceerd Jul 2, 2025 vanaf Cape Canaveral Space Force Station

Loading…

Volgende Passages (komende 24 uur)

TLE

VersSource: CelesTrak SupGP

Epoch: Sep 15, 2026, 02:55 UTC

1 64733C 25144K   26258.12201389  .00051984  00000+0  15360-2 0  2589
2 64733  53.1596  14.5336 0001173  92.8247  65.1660 15.34361170    16

Volg STARLINK-34556 in realtime met AllMySat

Download on the App Store